Printer-friendly version

IAU Minor Planet Center

Minor Planet Center

MPEC 2006-T65 : 2006 TJ7

The following Minor Planet Electronic Circular may be linked-to from your own Web pages, but must not otherwise be redistributed electronically.


Read MPEC 2006-T64 Read MPEC 2006-T66


M.P.E.C. 2006-T65                                Issued 2006 Oct. 12, 20:24 UT

     The Minor Planet Electronic Circulars contain information on unusual
         minor planets and routine data on comets.  They are published
   on behalf of Commission 20 of the International Astronomical Union by the
          Minor Planet Center, Smithsonian Astrophysical Observatory,
                          Cambridge, MA 02138, U.S.A.

             Prepared using the Tamkin Foundation Computer Network

                              MPC@CFA.HARVARD.EDU
          URL http://cfa-www.harvard.edu/iau/mpc.html  ISSN 1523-6714

                                   2006 TJ7

Observations:
     K06T07J* C2006 10 12.52580 00 10 01.66 -23 52 01.4          18.4 V ET065E12
     K06T07J  C2006 10 12.53471 00 10 12.61 -23 54 10.2          18.4 V ET065E12
     K06T07J  C2006 10 12.54352 00 10 23.34 -23 56 18.0          18.5 V ET065E12
     K06T07J  C2006 10 12.55213 00 10 33.88 -23 58 22.6          18.6 V ET065E12
     K06T07J  C2006 10 12.59111 00 11 21.68 -24 07 42.0          18.3 R ET065E12
     K06T07J  C2006 10 12.59294 00 11 23.93 -24 08 08.6          18.5 R ET065E12
     K06T07J  C2006 10 12.64385 00 12 26.92 -24 20 10.7          18.6 R ET065E12
     K06T07J  C2006 10 12.64569 00 12 29.24 -24 20 36.3          18.1 R ET065E12
     K06T07J  C2006 10 12.76248 00 14 57.95 -24 47 44.7          18.7 R ET065E12
     K06T07J  C2006 10 12.76758 00 15 04.57 -24 48 54.6          18.6 R ET065E12

Observer details:
E12 Siding Spring Survey.  Observer R. H. McNaught.  Measurers E. C. Beshore,
    E. J. Christensen, G. J. Garradd, A. R. Gibbs, A. D. Grauer, R. E. Hill,
    R. A. Kowalski, S. M. Larson, R. H. McNaught.  0.5-m Uppsala Schmidt + CCD.

Orbital elements:
2006 TJ7                                                 Earth MOID = 0.0376 AU
Epoch 2006 Sept. 22.0 TT = JDT 2454000.5                MPC
M 348.10688              (2000.0)            P               Q
n   0.41899816     Peri.  193.31302     +0.89320815     -0.44708968
a   1.7687290      Node   193.55233     +0.42898280     +0.87921655
e   0.4176467      Incl.   11.78349     +0.13473290     +0.16458758
P   2.35           H   24.1           G   0.15           U   8
Residuals in seconds of arc
061012 E12  0.5-  0.2-    061012 E12  0.1+  0.1+    061012 E12  0.2+  0.3-
061012 E12  0.4+  0.3+    061012 E12  0.0   0.4-    061012 E12  0.2-  0.2+
061012 E12  0.1-  0.1+    061012 E12  0.3-  0.0
061012 E12  0.1+  0.2-    061012 E12  0.1+  0.3+

Ephemeris:
2006 TJ7                 a,e,i = 1.77, 0.42, 12                  q = 1.0300
Date    TT    R. A. (2000) Decl.     Delta      r     Elong.  Phase     V
2006 10 12    23 58.77   -21 43.4    0.0428   1.034   146.4    32.3    18.7
2006 10 14    00 42.97   -29 27.2    0.0439   1.032   141.8    36.7    18.9
2006 10 16    01 29.15   -35 30.8    0.0469   1.031   135.7    42.4    19.2
2006 10 18    02 13.47   -39 35.7    0.0516   1.030   129.9    47.9    19.5
2006 10 20    02 52.88   -41 59.2    0.0575   1.030   125.1    52.3    19.9
2006 10 22    03 26.08   -43 11.1    0.0642   1.030   121.2    55.7    20.2
2006 10 24    03 53.18   -43 37.7    0.0716   1.031   118.4    58.1    20.5
2006 10 26    04 15.02   -43 37.7    0.0793   1.032   116.2    59.8    20.8
2006 10 28    04 32.58   -43 22.4    0.0874   1.033   114.7    60.9    21.1
2006 10 30    04 46.75   -42 58.8    0.0956   1.035   113.7    61.4    21.3
2006 11 01    04 58.26   -42 30.6    0.104    1.038   113.1    61.7    21.5

Kyle E. Smalley              (C) Copyright 2006 MPC           M.P.E.C. 2006-T65

Read MPEC 2006-T64 Read MPEC 2006-T66


Our Web policy. Index to the CBAT/MPC/ICQ pages.


Valid HTML 4.01!